Flag for U.S.A. Weather past 2 weeks in Chicago, Illinois, U.S.A.

Now
58 °F

Passing clouds.


Feels Like: 55 °F
Forecast: 46 / 66 °F
Wind: 13 mph from Southeast

Location: Chicago Midway Airport


UV Index: 3 (Moderate)

Visibility: 10 mi


Pressure: 30.24 "Hg

Humidity: 44%

Dew point: 36 °F

Location of ChicagoLocation

Historic Weather in Chicago

°F

Chicago temperature yesterday

Maximum temperature yesterday: 51 °F (at 2:51 PM)
Minimum temperature yesterday: 39 °F (at 10:51 PM)
Average temperature yesterday: 46 °F

Past Weeks' High & Low Weather Summary

 TemperatureHumidityPressure
High80 °F (Apr 12, 2:51 PM)97% (Apr 13, 3:51 PM)30.40 "Hg (Apr 13, 3:51 PM)
Low27 °F (Apr 15, 5:51 AM)15% (Apr 11, 12:51 PM)29.35 "Hg (Apr 14, 2:51 AM)
Average49 °F56%30.00 "Hg
* Reported Apr 4 10:51 PM — Apr 19 10:51 PM, Chicago, Weather by CustomWeather, © 2014

Note: Actual official high and low records may vary slightly from our data, if they occured in-between our weather recording intervals... More about our weather records

Advertising

Historic Weather Conditions — Data for Previous 24 hours

 ConditionsComfort  
Time TempWeatherWind HumidityBarometerVisibility
10:51 PM
Apr 19
58 °FPassing clouds.13 mph44%30.24 "Hg10 mi
9:51 PM56 °FPartly cloudy.9 mph51%30.25 "Hg10 mi
8:51 PM53 °FPartly cloudy.8 mph56%30.25 "Hg10 mi
7:51 PM55 °FBroken clouds.7 mph51%30.24 "Hg10 mi
6:51 PM59 °FMostly cloudy.9 mph44%30.23 "Hg10 mi
5:51 PM61 °FMostly cloudy.13 mph42%30.23 "Hg10 mi
4:51 PM63 °FMostly cloudy.10 mph40%30.25 "Hg10 mi
3:51 PM63 °FPartly sunny.9 mph41%30.27 "Hg10 mi
2:51 PM61 °FPartly sunny.9 mph46%30.30 "Hg10 mi
1:51 PM60 °FPartly sunny.10 mph47%30.32 "Hg10 mi
12:51 PM57 °FPartly sunny.9 mph51%30.34 "Hg10 mi
11:51 AM54 °FPartly sunny.7 mph57%30.36 "Hg10 mi
10:51 AM50 °FPartly sunny.5 mph61%30.38 "Hg10 mi
9:51 AM48 °FPassing clouds.7 mph66%30.40 "Hg10 mi
8:51 AM45 °FPassing clouds.10 mph68%30.40 "Hg10 mi
7:51 AM42 °FPassing clouds.10 mph71%30.40 "Hg10 mi
6:51 AM40 °FPassing clouds.12 mph73%30.39 "Hg10 mi
5:51 AM38 °FPassing clouds.8 mph79%30.39 "Hg10 mi
4:51 AM38 °FClear.7 mph73%30.38 "Hg10 mi
3:51 AM39 °FPassing clouds.9 mph70%30.37 "Hg10 mi
2:51 AM39 °FPassing clouds.9 mph70%30.37 "Hg10 mi
1:51 AM40 °FClear.9 mph65%30.38 "Hg10 mi
12:51 AM41 °FClear.13 mph55%30.37 "Hg10 mi
11:51 PM
Apr 18
39 °FClear.8 mph62%30.38 "Hg10 mi
Weather by CustomWeather, © 2014

See weather overview